Milwaukee, WI

8:59 AM CST on December 05, 2016 (GMT -0600)
Timmerman

Weather History for KMWC - March, 2014

Change the Weather History Date:

Tuesday, March 25, 2014

  Actual Average Record
Temperature  
Mean Temperature 20 °F -  
Max Temperature 26 °F 46 °F 77 °F (2007)
Min Temperature 15 °F 28 °F 0 °F (1960)
Degree Days  
Heating Degree Days 44    
Moisture  
Dew Point 8 °F    
Average Humidity 59    
Maximum Humidity 80    
Minimum Humidity 34    
Precipitation  
Precipitation 0.00 in - - ()
Sea Level Pressure  
Sea Level Pressure 30.08 in    
Wind  
Wind Speed 9 mph (WNW)    
Max Wind Speed 20 mph    
Max Gust Speed 26 mph    
Visibility 10 miles    
Events      
Averages and records for this station are not official NWS values.
T = Trace of Precipitation, MM = Missing Value Source: NWS Daily Summary

Daily Weather History Graph

Daily Weather History Graph

Search for Another Location

Airport or City:

Trip Planner

Search our weather history database for the weather conditions in past years. The results will help you decide how hot, cold, wet, or windy it might be!

Date:

Astronomy

Mar. 25, 2014 Rise Set
Actual Time 6:46 AM CDT 7:10 PM CDT
Civil Twilight 6:18 AM CDT 7:38 PM CDT
Nautical Twilight 5:44 AM CDT 8:12 PM CDT
Astronomical Twilight 5:10 AM CDT 8:46 PM CDT
Moon 3:15 AM CDT (3/25) 1:33 PM CDT (3/25)
Length of Visible Light 13h 20m
Length of Day
12h 23m
Waning Crescent, 32% of the Moon is Illuminated
Mar 25
Waning Crescent
Mar 30
New
Apr 7
First Quarter
Apr 15
Full
Apr 22
Last Quarter

Hourly Weather History & Observations

Time (CDT) Temp. Windchill Dew Point Humidity Pressure Visibility Wind Dir Wind Speed Gust Speed Precip Events Conditions
12:15 AM 26.6 °F 18.2 °F 21.2 °F 80% 30.02 in 10.0 mi WNW 8.1 mph - N/A   Overcast
12:35 AM 26.6 °F 19.1 °F 19.4 °F 74% 30.02 in 10.0 mi WNW 6.9 mph - N/A   Overcast
12:55 AM 24.8 °F 16.9 °F 17.6 °F 74% 30.01 in 10.0 mi WNW 6.9 mph - N/A   Mostly Cloudy
1:15 AM 24.8 °F 19.1 °F 17.6 °F 74% 30.01 in 10.0 mi West 4.6 mph - N/A   Scattered Clouds
1:35 AM 23.0 °F 15.8 °F 17.6 °F 80% 30.01 in 10.0 mi West 5.8 mph - N/A   Mostly Cloudy
1:55 AM 24.8 °F 16.1 °F 17.6 °F 74% 30.00 in 10.0 mi West 8.1 mph - N/A   Mostly Cloudy
2:15 AM 23.0 °F 13.9 °F 15.8 °F 74% 30.00 in 10.0 mi NW 8.1 mph - N/A   Scattered Clouds
2:35 AM 23.0 °F 12.4 °F 14.0 °F 68% 29.99 in 10.0 mi NW 10.4 mph - N/A   Scattered Clouds
2:55 AM 23.0 °F 13.9 °F 14.0 °F 68% 29.99 in 10.0 mi WNW 8.1 mph - N/A   Clear
3:15 AM 23.0 °F 13.1 °F 12.2 °F 63% 29.99 in 10.0 mi WNW 9.2 mph - N/A   Scattered Clouds
3:35 AM 23.0 °F 13.1 °F 14.0 °F 68% 29.99 in 10.0 mi WNW 9.2 mph - N/A   Scattered Clouds
3:55 AM 21.2 °F 11.7 °F 12.2 °F 68% 29.99 in 10.0 mi WNW 8.1 mph - N/A   Mostly Cloudy
4:15 AM 21.2 °F 11.7 °F 12.2 °F 68% 29.99 in 10.0 mi WNW 8.1 mph - N/A   Clear
4:35 AM 21.2 °F 11.7 °F 12.2 °F 68% 30.00 in 10.0 mi WNW 8.1 mph - N/A   Clear
4:55 AM 21.2 °F 11.7 °F 12.2 °F 68% 30.00 in 10.0 mi WNW 8.1 mph - N/A   Clear
5:15 AM 19.4 °F 10.4 °F 12.2 °F 74% 30.00 in 10.0 mi WNW 6.9 mph - N/A   Clear
5:35 AM 19.4 °F 11.5 °F 10.4 °F 68% 30.00 in 10.0 mi West 5.8 mph - N/A   Clear
5:55 AM 19.4 °F 11.5 °F 10.4 °F 68% 30.01 in 10.0 mi WNW 5.8 mph - N/A   Clear
6:15 AM 19.4 °F 11.5 °F 10.4 °F 68% 30.01 in 10.0 mi WNW 5.8 mph - N/A   Clear
6:35 AM 17.6 °F 9.3 °F 10.4 °F 73% 30.01 in 10.0 mi West 5.8 mph - N/A   Clear
6:45 AM 17.6 °F 8.2 °F 8.6 °F 68% 30.01 in 10.0 mi West 6.9 mph - N/A   Clear
7:45 AM 19.4 °F 7.2 °F 8.6 °F 63% 30.03 in 10.0 mi NW 11.5 mph 18.4 mph N/A   Scattered Clouds
8:45 AM 19.4 °F 3.6 °F 8.6 °F 63% 30.04 in 10.0 mi WNW 19.6 mph 26.5 mph N/A   Scattered Clouds
9:45 AM 19.4 °F 4.1 °F 8.6 °F 63% 30.07 in 10.0 mi WNW 18.4 mph 24.2 mph N/A   Scattered Clouds
10:45 AM 19.4 °F 4.1 °F 6.8 °F 58% 30.10 in 10.0 mi NW 18.4 mph - N/A   Mostly Cloudy
11:17 AM 19.4 °F 4.5 °F 8.6 °F 63% 30.11 in 7.0 mi NW 17.3 mph - N/A   Overcast
11:45 AM 21.2 °F 6.4 °F 6.8 °F 54% 30.11 in 10.0 mi WNW 18.4 mph 23.0 mph N/A   Scattered Clouds
12:45 PM 21.2 °F 6.8 °F 6.8 °F 54% 30.12 in 10.0 mi WNW 17.3 mph 24.2 mph N/A   Scattered Clouds
1:45 PM 21.2 °F 7.8 °F 3.2 °F 46% 30.12 in 10.0 mi NW 15.0 mph 21.9 mph N/A   Mostly Cloudy
2:45 PM 24.8 °F 11.1 °F 3.2 °F 40% 30.11 in 10.0 mi WNW 18.4 mph 26.5 mph N/A   Scattered Clouds
3:45 PM 24.8 °F 11.9 °F 1.4 °F 36% 30.11 in 10.0 mi WNW 16.1 mph 23.0 mph N/A   Scattered Clouds
4:45 PM 24.8 °F 12.9 °F 1.4 °F 36% 30.11 in 10.0 mi WNW 13.8 mph 25.3 mph N/A   Scattered Clouds
5:45 PM 24.8 °F 12.4 °F -0.4 °F 34% 30.13 in 10.0 mi West 15.0 mph 23.0 mph N/A   Mostly Cloudy
6:45 PM 23.0 °F 8.7 °F -0.4 °F 36% 30.14 in 10.0 mi WNW 18.4 mph 26.5 mph N/A   Mostly Cloudy
7:45 PM 21.2 °F 10.1 °F -0.4 °F 39% 30.15 in 10.0 mi WNW 10.4 mph - N/A   Clear
8:45 PM 19.4 °F 7.9 °F -0.4 °F 42% 30.18 in 10.0 mi NW 10.4 mph - N/A   Clear
9:15 PM 19.4 °F 6.0 °F 1.4 °F 46% 30.20 in 10.0 mi NNW 13.8 mph 17.3 mph N/A   Clear
9:35 PM 19.4 °F 7.9 °F 1.4 °F 46% 30.21 in 10.0 mi NNW 10.4 mph 17.3 mph N/A   Clear
9:55 PM 19.4 °F 9.5 °F 1.4 °F 46% 30.21 in 10.0 mi NNW 8.1 mph - N/A   Clear
10:15 PM 17.6 °F 9.3 °F 3.2 °F 53% 30.21 in 10.0 mi NNW 5.8 mph - N/A   Clear
10:35 PM 17.6 °F 10.7 °F 1.4 °F 49% 30.22 in 10.0 mi NNW 4.6 mph - N/A   Clear
10:55 PM 17.6 °F 9.3 °F 1.4 °F 49% 30.22 in 10.0 mi NW 5.8 mph - N/A   Clear
11:15 PM 17.6 °F 9.3 °F 3.2 °F 53% 30.23 in 10.0 mi NW 5.8 mph - N/A   Clear
11:35 PM 15.8 °F 8.6 °F 3.2 °F 58% 30.23 in 10.0 mi NW 4.6 mph - N/A   Clear
11:55 PM 15.8 °F 10.2 °F 3.2 °F 58% 30.23 in 10.0 mi WNW 3.5 mph - N/A   Clear